ONEWEB-0691, 61599

Orbit data source: Space-Track

ONEWEB-0691, 61599 is a payload satellite in LEO that was launched on Sun, 20 Oct 2024 UTC via an FALCON 9 launch vehicle from the Air Force Western Test Range (AFWTR). Payload-class satellites include a variety of spacecraft equipped with specific instruments for various scientific and technological missions. These include communications satellites like Starlink; space stations such as the ISS; scientific satellites like the Hubble; Earth observation satellites from companies like Planet Labs, Umbra, and HawkEye 360; GPS; miniature CubeSats for education and research; and military/defense satellites.

Loading next visibility...
Identifier
61599, 2024-188F
Orbit
LEO
Last TLE update
21 hours ago
Origin
Manufacturer
One Web
Mission
Operational Commercial Communications
Bus & Motor
ARROW, Unknown motor
Mass
148 kg wet, ~140 kg dry
Launch date (UTC)
2024-10-20 (7 months ago)
Launch vehicle
FALCON 9
Launch site
Air Force Western Test Range (AFWTR)
Object type
Payload
Rocket body
Debris
Shape & HBR
Trap Box + 2 Pan, 5 m
Radar Cross Section
2.032 m², Medium (>0.1 m² and < 1m²)

Expand to show TLE details & history

TLE from 21 hours ago
0 ONEWEB-0691
1 61599U 24188F   25141.18307047  .00000564  00000-0  15551-2 0  9990
2 61599  87.8736  99.2176 0002181  72.9180 287.2186 13.11422186 33104
Epoch: 2025-05-21T04:23Z
TLE epoch observation values (Epoch: 2025-05-21T04:23:37.288Z)
Latitude
-0.0001°
Longitude
154.24159°
Altitude
1,220.061 km
Speed
7.245 km/s
True Right ascension
06h 36m 52s
True Declination
0° 00' 00"
Sunlit
Object was in daylight at epoch
Visualization orbit readout
Latitude
84.76149°
Longitude
-49.69184°
Altitude
1,229.922 km
Speed
7.247 km/s
Apparent Right ascension
21h 30m 06s
Apparent Declination
34° 12' 12"
Sunlit
Object is in daylight
Visualization observer readout
Local Sidereal Time
10:00:14
Azimuth
6.463° NNE
Elevation
-15.555°
Doppler factor
1
Orbital elements
Apogee altitude
1,216.437 km
Perigee altitude
1,213.125 km
Semi-major axis
7,592.918 km
Eccentricity
0.00022
Inclination
87.8736°
RAAN
99.2176°
Arg. of periapsis
72.918°
True anomaly
Unknown
Mean anomaly
287.2186°
Eccentric anomaly
Unknown
Mean motion
3.28043 °/min
Orbital period
109.74 mins
BSTAR
0.0015551
Loading maneuver chart data...
Loading SW <> Apogee altitude chart data...
Loading historical data...
Loading historical data...
Loading historical data...
Loading historical data...
Loading historical data...
Loading historical data...
Loading historical data...

ONEWEB-0691 Visibility forecast

Observer location: undefined°, undefined°

Span
Click to sort rows by Start time (UTC) header in descending order
Start Az.
Max El. time (UTC)
Max El. Az.
Max El.
End time (UTC)
End Az.
12 mins2025-05-22 08:28:02.833Z17.346° NNE2025-05-22 08:34:02.833Z80.748° E32.05°2025-05-22 08:40:02.833Z145.515° SSE
11 mins2025-05-22 10:19:02.833Z335.81° NNW2025-05-22 10:24:02.833Z276.897° WNW31.332°2025-05-22 10:30:02.833Z217.163° SW
11 mins2025-05-22 20:48:02.833Z143.177° SSE2025-05-22 20:53:02.833Z82.006° E34.416°2025-05-22 20:59:02.833Z16.53° NNE
11 mins2025-05-22 22:38:02.833Z224.776° SW2025-05-22 22:43:02.833Z280.324° WNW28.967°2025-05-22 22:49:02.833Z340.478° N
|